When you browse on this site, cookies collect data to enhance your experience and personalize the content and advertising you see.
Visit our Privacy Policy to learn more. By continuing to use the site, you agree to this use of cookies and data.
  • In Romania
  • List of Countries
  • For 7 days
  • Water Temperature
  • Satellite Maps
  • Weather Map
  • Weather Widgets
  • user-avatar
    Login

    Hourly Weather Winchester

    Today, 13 December, Thursday

    Time Temperature Precipitation Wind Pressure Humidity
    00:00 +1°C° 0 mm 8 mps 756 mmHg 76%
    01:00 +1°C° 0 mm 8 mps 755 mmHg 76%
    02:00 +1°C° 0 mm 8 mps 755 mmHg 76%
    03:00 +1°C° 0 mm 9 mps 754 mmHg 76%
    04:00 +1°C° 0 mm 8 mps 754 mmHg 75%
    05:00 +1°C° 0 mm 8 mps 754 mmHg 75%
    06:00 +1°C° 0 mm 8 mps 754 mmHg 75%
    07:00 +1°C° 0 mm 8 mps 754 mmHg 75%
    08:00 +1°C° 0 mm 8 mps 754 mmHg 74%
    09:00 +1°C° 0 mm 8 mps 754 mmHg 74%
    10:00 +1°C° 0 mm 9 mps 754 mmHg 72%
    11:00 +2°C° 0 mm 9 mps 755 mmHg 69%
    12:00 +2°C° 0 mm 9 mps 755 mmHg 67%
    13:00 +2°C° 0 mm 8 mps 755 mmHg 67%
    14:00 +2°C° 0 mm 8 mps 755 mmHg 68%
    15:00 +2°C° 0 mm 7 mps 755 mmHg 68%
    16:00 +2°C° 0 mm 7 mps 756 mmHg 70%
    17:00 0°C° 0 mm 7 mps 756 mmHg 71%
    18:00 -1°C° 0 mm 7 mps 756 mmHg 73%
    19:00 -1°C° 0 mm 6 mps 757 mmHg 74%
    20:00 -1°C° 0 mm 6 mps 757 mmHg 76%
    21:00 0°C° 0 mm 5 mps 758 mmHg 77%
    22:00 -1°C° 0 mm 5 mps 758 mmHg 78%
    23:00 -1°C° 0 mm 5 mps 759 mmHg 79%

    Tomorrow, 14 December, Friday

    Time Temperature Precipitation Wind Pressure Humidity
    00:00 -1°C° 0 mm 4 mps 759 mmHg 80%
    01:00 -1°C° 0 mm 4 mps 759 mmHg 79%
    02:00 -2°C° 0 mm 4 mps 760 mmHg 79%
    03:00 -2°C° 0 mm 4 mps 760 mmHg 78%
    04:00 -2°C° 0 mm 4 mps 760 mmHg 78%
    05:00 -2°C° 0 mm 4 mps 760 mmHg 78%
    06:00 -2°C° 0 mm 4 mps 760 mmHg 78%
    07:00 -2°C° 0 mm 4 mps 760 mmHg 77%
    08:00 -1°C° 0 mm 3 mps 761 mmHg 77%
    09:00 -1°C° 0 mm 3 mps 761 mmHg 77%
    10:00 0°C° 0 mm 4 mps 761 mmHg 74%
    11:00 +1°C° 0 mm 4 mps 761 mmHg 70%
    12:00 +2°C° 0 mm 5 mps 761 mmHg 67%
    13:00 +3°C° 0 mm 4 mps 761 mmHg 69%
    14:00 +3°C° 0 mm 3 mps 761 mmHg 71%
    15:00 +3°C° 0 mm 3 mps 761 mmHg 72%
    16:00 +2°C° 0 mm 3 mps 761 mmHg 76%
    17:00 +1°C° 0 mm 3 mps 761 mmHg 79%
    18:00 -1°C° 0 mm 4 mps 761 mmHg 82%
    19:00 -1°C° 0 mm 4 mps 761 mmHg 81%
    20:00 -1°C° 0 mm 4 mps 760 mmHg 80%
    21:00 -1°C° 0 mm 4 mps 760 mmHg 79%
    22:00 0°C° 0 mm 5 mps 760 mmHg 78%
    23:00 0°C° 0 mm 5 mps 759 mmHg 76%

    Day after tomorrow, 15 December, Saturday

    Time Temperature Precipitation Wind Pressure Humidity
    00:00 +1°C° 0 mm 6 mps 759 mmHg 75%
    01:00 +1°C° 0 mm 6 mps 758 mmHg 76%
    02:00 +1°C° 0 mm 6 mps 758 mmHg 77%
    03:00 +1°C° 0 mm 6 mps 757 mmHg 78%
    04:00 0°C° 0.2 mm 7 mps 756 mmHg 77%
    05:00 +1°C° 0.2 mm 8 mps 755 mmHg 76%
    06:00 +1°C° 0.2 mm 8 mps 755 mmHg 75%
    07:00 +1°C° 1.8 mm 9 mps 754 mmHg 78%
    08:00 +1°C° 1.8 mm 9 mps 753 mmHg 82%
    09:00 +1°C° 1.8 mm 10 mps 753 mmHg 86%
    10:00 +2°C° 0.8 mm 10 mps 752 mmHg 88%
    11:00 +2°C° 0.8 mm 11 mps 751 mmHg 90%
    12:00 +3°C° 0.8 mm 11 mps 750 mmHg 92%
    13:00 +3°C° 1.6 mm 11 mps 749 mmHg 93%
    14:00 +5°C° 1.6 mm 10 mps 748 mmHg 93%
    15:00 +6°C° 1.6 mm 10 mps 747 mmHg 94%
    16:00 +7°C° 1.6 mm 11 mps 745 mmHg 94%
    17:00 +9°C° 1.6 mm 11 mps 744 mmHg 94%
    18:00 +11°C° 1.6 mm 11 mps 743 mmHg 94%
    19:00 +9°C° 1.3 mm 11 mps 743 mmHg 89%
    20:00 +8°C° 1.3 mm 10 mps 743 mmHg 84%
    21:00 +7°C° 1.3 mm 10 mps 743 mmHg 79%
    22:00 +6°C° 0 mm 9 mps 744 mmHg 79%
    23:00 +6°C° 0 mm 9 mps 745 mmHg 79%

    16 December, Sunday

    Time Temperature Precipitation Wind Pressure Humidity
    00:00 +5°C° 0 mm 8 mps 746 mmHg 79%
    01:00 +5°C° 0 mm 7 mps 747 mmHg 79%
    02:00 +4°C° 0 mm 7 mps 747 mmHg 80%
    03:00 +4°C° 0 mm 6 mps 748 mmHg 80%
    04:00 +3°C° 0 mm 6 mps 748 mmHg 82%
    05:00 +3°C° 0 mm 5 mps 749 mmHg 84%
    06:00 +4°C° 0 mm 4 mps 749 mmHg 85%
    07:00 +4°C° 0 mm 4 mps 750 mmHg 86%
    08:00 +4°C° 0 mm 4 mps 750 mmHg 86%
    09:00 +4°C° 0 mm 3 mps 751 mmHg 87%
    10:00 +5°C° 0 mm 4 mps 750 mmHg 83%
    11:00 +6°C° 0 mm 4 mps 750 mmHg 80%
    12:00 +8°C° 0 mm 4 mps 750 mmHg 76%
    13:00 +7°C° 0.4 mm 5 mps 750 mmHg 79%
    14:00 +7°C° 0.4 mm 5 mps 750 mmHg 81%
    15:00 +7°C° 0.4 mm 5 mps 750 mmHg 84%
    16:00 +6°C° 0.9 mm 5 mps 750 mmHg 86%
    17:00 +6°C° 0.9 mm 5 mps 750 mmHg 88%
    18:00 +6°C° 0.9 mm 4 mps 750 mmHg 90%
    19:00 +6°C° 0.4 mm 4 mps 751 mmHg 90%
    20:00 +5°C° 0.4 mm 5 mps 751 mmHg 90%
    21:00 +5°C° 0.4 mm 5 mps 751 mmHg 90%
    22:00 +3°C° 0 mm 5 mps 752 mmHg 90%
    23:00 +3°C° 0 mm 5 mps 752 mmHg 90%

    17 December, Monday

    Time Temperature Precipitation Wind Pressure Humidity
    00:00 +3°C° 0 mm 4 mps 752 mmHg 90%
    01:00 +3°C° 0 mm 4 mps 753 mmHg 90%
    02:00 +3°C° 0 mm 4 mps 753 mmHg 90%
    03:00 +3°C° 0 mm 4 mps 753 mmHg 90%
    04:00 +3°C° 0 mm 4 mps 754 mmHg 90%
    05:00 +3°C° 0 mm 4 mps 754 mmHg 91%
    06:00 +2°C° 0 mm 3 mps 755 mmHg 91%
    07:00 +3°C° 0 mm 3 mps 755 mmHg 91%
    08:00 +3°C° 0 mm 3 mps 756 mmHg 90%
    09:00 +3°C° 0 mm 3 mps 756 mmHg 90%
    10:00 +4°C° 0 mm 3 mps 757 mmHg 87%
    11:00 +7°C° 0 mm 3 mps 757 mmHg 83%
    12:00 +8°C° 0 mm 3 mps 757 mmHg 79%
    13:00 +8°C° 0 mm 3 mps 757 mmHg 81%
    14:00 +7°C° 0 mm 3 mps 757 mmHg 83%
    15:00 +7°C° 0 mm 3 mps 757 mmHg 84%
    16:00 +7°C° 0 mm 3 mps 757 mmHg 86%
    17:00 +5°C° 0 mm 4 mps 757 mmHg 87%
    18:00 +5°C° 0 mm 4 mps 757 mmHg 89%
    19:00 +5°C° 0 mm 4 mps 757 mmHg 89%
    20:00 +5°C° 0 mm 5 mps 757 mmHg 90%
    21:00 +6°C° 0 mm 5 mps 756 mmHg 90%
    22:00 +7°C° 0 mm 6 mps 756 mmHg 89%
    23:00 +7°C° 0 mm 6 mps 756 mmHg 89%

    18 December, Tuesday

    Time Temperature Precipitation Wind Pressure Humidity
    00:00 +8°C° 0 mm 7 mps 755 mmHg 89%
    01:00 +8°C° 0.1 mm 7 mps 755 mmHg 88%
    02:00 +7°C° 0.1 mm 8 mps 754 mmHg 88%
    03:00 +9°C° 0.1 mm 8 mps 754 mmHg 88%
    04:00 +9°C° 0.1 mm 8 mps 753 mmHg 88%
    05:00 +7°C° 0.1 mm 9 mps 752 mmHg 87%
    06:00 +7°C° 0.1 mm 9 mps 751 mmHg 87%
    07:00 +7°C° 0 mm 9 mps 751 mmHg 85%
    08:00 +7°C° 0 mm 10 mps 750 mmHg 84%
    09:00 +7°C° 0 mm 10 mps 750 mmHg 82%
    10:00 +7°C° 0.2 mm 10 mps 749 mmHg 81%
    11:00 +7°C° 0.2 mm 10 mps 749 mmHg 79%
    12:00 +7°C° 0.2 mm 10 mps 749 mmHg 77%
    13:00 +7°C° 0.2 mm 9 mps 748 mmHg 78%
    14:00 +7°C° 0.2 mm 9 mps 747 mmHg 78%
    15:00 +6°C° 0.2 mm 8 mps 746 mmHg 79%
    16:00 +6°C° 1.1 mm 8 mps 745 mmHg 82%
    17:00 +6°C° 1.1 mm 9 mps 744 mmHg 85%
    18:00 +5°C° 1.1 mm 9 mps 744 mmHg 88%
    19:00 +6°C° 0.9 mm 8 mps 743 mmHg 89%
    20:00 +6°C° 0.9 mm 7 mps 743 mmHg 90%
    21:00 +7°C° 0.9 mm 6 mps 743 mmHg 91%
    22:00 +7°C° 0.3 mm 6 mps 742 mmHg 91%
    23:00 +7°C° 0.3 mm 6 mps 742 mmHg 91%
    Show more